Meteo Giornale » Osservazioni meteo Germania » Duesseldorf

ore: 00:50 - Osservazioni Meteo Duesseldorf
Lat. 51° 18' N Lon. 6° 46' E Alt. 45 metri s.l.m.

sereno Europe/Berlin

25 °C

Sereno

Temp. 24 Ore

22 °C

34 °C

Nord

14.8 Km/h

Dew point 18 °C

Umidità 65 %

Visibilità  10 Km

Il sole sorge alle ore 05:14

Il sole tramonta alle ore 21:54

Data e Ora Cielo e Fenomeni T °C DP °C Um. % Pres. hPa Vis. km Vento km/h
Oggi h: 00:50 sereno Sereno 25 18 65 1013 10 N 14.8
Oggi h: 00:20 sereno Sereno 24 18 69 1013 10 N 9.3
Ieri h: 23:50 sereno Sereno 25 18 65 1013 10 N/NO 9.3
Ieri h: 23:20 sereno Sereno 26 18 61 1012 10 N 11.1
Ieri h: 22:50 sereno Sereno 26 18 61 1012 10 N 11.1
Ieri h: 22:20 sereno Sereno 27 17 54 1012 10 N 5.5
Ieri h: 21:50 sereno Sereno 28 17 51 1012 10 NO 7.4
Ieri h: 21:20 sereno Sereno 28 17 51 1011 10 NO 7.4
Ieri h: 20:50 sereno Sereno 29 17 48 1011 10 NO 11.1
Ieri h: 20:20 sereno Sereno 30 17 45 1011 10 NO 11.1
Ieri h: 19:50 sereno Sereno 31 17 43 1011 10 O/NO 11.1
Ieri h: 19:20 sereno Sereno 32 17 40 1010 10 O/NO 13
Ieri h: 18:50 sereno Sereno 33 17 38 1010 10 O 14.8
Ieri h: 18:20 poco_nuvoloso Poco Nuvoloso 33 17 38 1010 10 O 16.7
Ieri h: 17:50 poco_nuvoloso Poco Nuvoloso 33 17 38 1010 10 O 14.8
Ieri h: 17:20 sereno Sereno 33 17 38 1010 10 O 16.7
Ieri h: 16:50 sereno Sereno 33 17 38 1010 10 O 18.5
Ieri h: 16:20 sereno Sereno 33 17 38 1010 10 O 14.8
Ieri h: 15:50 sereno Sereno 33 17 38 1010 10 O/SO 14.8
Ieri h: 15:20 sereno Sereno 34 17 36 1010 10 S/SO 20.3
Ieri h: 14:50 sereno Sereno 33 15 33 1010 10 S/SE 11.1
Ieri h: 14:20 sereno Sereno 32 15 35 1010 10 S 16.7
Ieri h: 13:50 sereno Sereno 34 15 32 1010 10 S 22.2
Ieri h: 13:20 sereno Sereno 33 16 36 1010 10 S/SE 16.7
Ieri h: 12:50 sereno Sereno 32 16 38 1010 10 E/SE 14.8
Ieri h: 12:20 sereno Sereno 32 16 38 1010 10 S/SE 11.1
Ieri h: 11:50 sereno Sereno 31 16 40 1010 10 S 13
Ieri h: 11:20 sereno Sereno 30 15 40 1011 10 SO 16.7
Ieri h: 10:50 sereno Sereno 30 16 42 1011 10 S/SO 18.5
Ieri h: 10:20 sereno Sereno 30 16 42 1010 10 SE 18.5
Ieri h: 09:50 sereno Sereno 29 15 42 1011 10 S/SE 16.7
Ieri h: 09:20 sereno Sereno 28 16 48 1011 10 S/SE 18.5
Ieri h: 08:50 sereno Sereno 27 15 47 1010 10 S/SE 22.2
Ieri h: 08:20 sereno Sereno 26 15 50 1010 10 S/SE 24
Ieri h: 07:50 sereno Sereno 25 15 53 1010 10 S/SE 18.5
Ieri h: 07:20 sereno Sereno 24 15 57 1010 10 S/SE 16.7
Ieri h: 06:50 sereno Sereno 23 15 60 1010 10 S/SE 14.8
Ieri h: 06:20 sereno Sereno 22 15 64 1010 10 S/SE 16.7
Ieri h: 05:50 sereno Sereno 22 14 60 1010 10 S/SE 16.7
Ieri h: 05:20 sereno Sereno 22 14 60 1010 10 S/SE 14.8
Ieri h: 04:50 sereno Sereno 22 14 60 1010 10 S/SE 13
Ieri h: 04:20 sereno Sereno 23 14 56 1010 10 S/SE 13
Ieri h: 03:50 sereno Sereno 23 14 56 1010 10 S/SE 16.7
Ieri h: 03:20 sereno Sereno 24 15 57 1010 10 SE 16.7
Ieri h: 02:50 sereno Sereno 24 15 57 1010 10 S/SE 16.7
Ieri h: 02:20 sereno Sereno 24 15 57 1010 10 SE 14.8
Ieri h: 01:50 sereno Sereno 24 15 57 1010 10 S/SE 13